Weather Roundup
Issued by NWS Chicago, IL

Home | Current Version | Previous Version | Graphics & Text | Print | Product List | Glossary On
Versions: 1 2 3 4 5 6 7 8 9 10 11 12 13 14 15 16 17 18 19 20 21 22 23 24 25 26 27 28 29 30 31 32 33 34 35 36 37 38 39 40 41 42 43 44 45 46 47 48 49 50
353
NZUS59 KLOT 260108
HRRLOT

CHICAGO AREA WEATHER ROUNDUP
NATIONAL WEATHER SERVICE CHICAGO/ROMEOVILLE IL
700 PM CST SUN FEB 25 2018

NOTE: "FAIR" INDICATES FEW OR NO CLOUDS BELOW 12,000 FEET WITH NO
SIGNIFICANT WEATHER AND/OR OBSTRUCTIONS TO VISIBILITY.

* THESE STATIONS ARE NOT UNDER NWS QUALITY CONTROL. THEY ALSO MAY NOT
  REPORT WEATHER SUCH AS PRECIPITATION OR FOG.

ILZ005-006-012>014-019>023-260200-
NORTHEAST ILLINOIS

CITY           SKY/WX    TMP DP  RH WIND       PRES   REMARKS
OHARE            N/A     41  25  53 SW12      30.04R
MIDWAY           N/A     42  25  50 SW13      30.06R
AURORA           N/A     37  29  72 SW7       30.07R
LANSING*         N/A     39  27  62 SW9       30.08S
JOLIET*          N/A     42  27  54 SW6       30.08S
WAUKEGAN         N/A     40  24  53 SW12G21   30.01R
DUPAGE AIRPORT   N/A     39  28  64 SW12      30.05R
WHEELING         N/A     43  24  47 SW8       30.05R
KANKAKEE*        N/A     38  28  67 SW7       30.10F
MORRIS*          N/A     39  27  61 SW8       30.07S
LEWIS AIRPORT*   N/A     39  28  63 SW8       30.07S
NORTHERLY ISL    N/A     43  22  43 SW10        N/A
$$

WIZ051-052-058>065-066-070>072-260200-
SOUTHEAST WISCONSIN

CITY           SKY/WX    TMP DP  RH WIND       PRES   REMARKS
MILWAUKEE        N/A     40  24  53 SW15G23   29.99R
KENOSHA*         N/A     38  25  59 SW17      30.01R
RACINE*          N/A     39  25  57 SW13G22   30.01R
BURLINGTON       N/A     36  25  65 W8        30.01R
WAUKESHA       CLEAR     36  23  60 SW17G25   29.98R
WEST BEND        N/A     36  27  69 SW15G25   29.95R
$$

INZ001>003-010>013-019-020-260200-
NORTHWEST INDIANA

CITY           SKY/WX    TMP DP  RH WIND       PRES   REMARKS
GARY*          PTCLDY    43  21  42 SW14      30.08R
MICHIGAN CITY* NOT AVBL
RENSSELAER*    NOT AVBL
VALPARAISO       N/A     40  27  59 SW13      30.08R
$$

LMZ740>746-260200-
SOUTHERN LAKE MICHIGAN

STATION/POSITION TIME  SKY/WX   TEMP WIND        PRES    VSBY
                                AIR  DIR/SP/G
                 (UTC)          (F)  (DEG/KT/KT) (MB)    (MI)
HARRISON CRIB    0040            44  240/ 19/ 23   N/A
BURNHAM HARBOR   0100            43  220/ 11/ 16   N/A
CALUMET HARBOR   0048            42  220/ 11/ 14 1017.4R
BURNS HARBOR     0040            42  230/ 12/ 17 1019.0R
MICHIGAN CITY    0040            42  200/ 15/ 18   N/A
$$

ABBREVIATIONS USED IN REMARKS
   TC - TEMPERATURE IN CELSIUS
  WCI - WIND CHILL INDEX
   HX - HEAT INDEX
  VSB - VISIBILITY
$$




USA.gov is the U.S. government's official web portal to all federal, state and local government web resources and services.